{"data":{"norad_id":49175,"epoch":"2026-09-20T02:47:16.510848Z","epoch_age_seconds":74414,"freshness":"FRESH","line1":"1 49175U 21082AX  26263.11616332 -.00000418  00000+0 -27900-4 0  9997","line2":"2 49175  69.9998 145.7779 0002482 256.1236 103.9647 14.97527920275559","mean_motion":14.9752792,"eccentricity":0.0002482,"inclination_deg":69.9998,"raan_deg":145.7779,"arg_perigee_deg":256.1236,"mean_anomaly_deg":103.9647,"bstar":-2.79e-5,"rev_number":27555,"period_min":96.158474294089,"perigee_km":572.81171041324,"apogee_km":576.26301796762,"semimajor_km":6952.6743641904,"source":"CELESTRAK","updated_at":"2026-09-20T09:00:39.253889Z"}}